Powrót do katalogu

STARLINK-31945

AktywnyŁącznośćVLEO
NORAD 59870·PAYLOAD·🇺🇸 United States

Wystrzelony May 24, 2024 z Cape Canaveral Space Force Station

Loading…

Następne Przeloty (najbliższe 24 godziny)

TLE

ŚwieżeSource: CelesTrak SupGP

Epoka: Sep 15, 2026, 03:09 UTC

1 59870C 24098N   26258.13173611 -.00002529  00000+0 -91722-4 0  2580
2 59870  43.0011 284.0653 0001381 257.4353 179.3269 15.27540591    17

Śledź STARLINK-31945 w czasie rzeczywistym z AllMySat

Download on the App Store